Tracking 30160 objects as of 13-Feb-2025
HD Live streaming from Space Station
objects crossing your sky now

OBJECT L

Track OBJECT L now!
10-day predictions


NORAD ID: 51834
Int'l Code: 2022-019L
Perigee: 464.0 km
Apogee: 475.6 km
Inclination: 97.4 °
Period: 93.8 minutes
Semi major axis: 6840 km
RCS: Unknown
Launch date: February 27, 2022
Source: People's Republic of China (PRC)
Launch site: Wenchang Satellite Launch Center (WSC)
Your satellite tracking list
Your tracking list is empty




NASA's NSSDC Master Catalog

Two Line Element Set (TLE):
1 51834U 22019L   25044.22725988  .00027280  00000-0  81783-3 0  9992
2 51834  97.4063 123.3899 0008461 100.4266 259.7931 15.34423801164205
Source of the keplerian elements: AFSPC